sat.trackr.live / text

‹ back to catalog

2026-052F

NORAD 68203 · 2026-052F

PAYLOAD ACTIVE UNKNOWN

§ Identity

Operator
Country
PRC
Launch date
2026-03-16
Launch site
JSC
Launch vehicle
Mass (kg)
RCS (m²)

External: N2YO · Heavens-Above · Gunter

§ Orbital elements

Epoch: 2026-09-20T00:20:03.722208Z

Period
95.20 min
Inclination
97.5248°
Eccentricity
0.0009760
Mean motion
15.12591399 rev/d
Perigee alt
521.6 km
Apogee alt
535.0 km
Semi-major
6,906.4 km
B*
2.2978e-4
RAAN
336.5661°
Arg perigee
347.4203°
Mean anomaly
12.6782°
Rev number
2,838

§ Raw data

2026-052F1 68203U 26052F   26263.01393197  .00003949  00000+0  22978-3 0  99912 68203  97.5248 336.5661 0009760 347.4203  12.6782 15.12591399 28383

JSON: /api/v1/satellites/68203 · /tle

For live sub-satellite position, see the globe view (requires WebGL).

§ Visibility from observer

Set your observer location to see the next 7 days of passes ≥ 10°. The values pass through the URL so the page stays shareable.

No JS? Fill the form by hand. The geolocation button needs JavaScript.

§ Radio — SatNOGS DB

ModeDescriptionDownlinkUplink
UNKNOWN UHF Downlink 401.250 MHz

1 transmitter · refreshed weekly from db.satnogs.org